User: anonymous   Login
Location: Gradaro
(45.0833°N, 10.8833°E)
Time: 07:02:18
(UTC+00:00)
Language:

FENGYUN 1C DEB - Orbit

View from above orbital plane
View from above orbital plane
View from above satellite
View from above satellite

Ground track
Ground track

The orbit data is extracted from the following two-line orbital elements,

1 31369U 99025BRZ 21163.30553787  .00000071  00000-0  55544-4 0  9993
2 31369  98.5535 181.4643 0057003   1.9969  10.7479 14.17065145410237
Epoch (UTC): 12 June 2021 07:19:58
Eccentricity: 0.0057003
inclination: 98.5535°
perigee height: 794 km
apogee height: 876 km
right ascension of ascending node: 181.4643°
argument of perigee: 1.9969°
revolutions per day: 14.17065145
mean anomaly at epoch: 10.7479°
orbit number at epoch: 41023

The dashed part of the orbit path shows where the satellite is in the earth's shadow,  

DLR